Погода в Напасе

Погода в Напасе : погода сейчас, прогноз погоды и архив. Всё, что Вы хотите узнать о погоде в Напасе!

Хотите узнать прогноз погоды в Напасе? Тогда Вам сюда: Погода в Напасе

Поиск расширенной информации на нашем сайте:

Другие новости

Новости СМИ2

Главная страница сайта

Новости сайта

02.10.2013

Напоминаем, что на нашем новом сайте вы можете получить высокодетализированные прогнозы погоды по пунктам России, СНГ и мира (включающие важные для авиации метеовеличины, такие как направление и скорость ветра, видимость, явления погоды, количество и форма облачности, нижняя и верхняя граница облачности), а также ознакомиться с разнообразными материалами по авиационной метеорологии и подборкой полезных ссылок на эту тему.

Сайт Метеоцентр.Азия посвящён разработке технологий оптимизации авиаметеорологического обслуживания, включая проектирование и перспективное создание нескольких автоматизированных авиаметеорологических систем:
- система выпуска высокодетальных прогностических карт явлений погоды для нижнего воздушного пространства по России и ближнему зарубежью;
- система верификации прогнозов TAF (выпускаемых синоптиками официальных АМСГ РФ и ближнего зарубежья) и AUTOTAF (выпускаемых сайтом Метеоцентр.Азия) - выявление ошибок, онлайн-сопоставление с фактической погодой METAR, автоматическое внесение коррективов в прогнозы при резком отклонении фактической погоды от прогноза, подсчёт оправдываемости прогнозов по элементам и в целом;
- система обработки, анализа и отображения авиаметеорологической информации для применения провайдерами метеорологической информации.


Погода в Напасе - сегодня

Время (UTC), дата Ветер
(°,м/с) 
Видим.   Явления Облачность Т
(°С)
Тd
(°С)
f(%) Тe
(°С)
Pmin
(гПа)
dP
(гПа)
Po
(мм)
O2
(г/м3)
Тmin Tmax R s Состояние
почвы
09 27.04.17 280 (З) 4000 м  дымка{ливн. осадки}  10/10 210 м 
[St]
+7.9 +6.6 91 +7  1008.4  749  292           
12 27.04.17 300 (СЗ) 7-10{13}  4000 м  дымка{ливн. осадки}  10/10 210 м 
[St]
+2.6 +1 89 -1  1013.8  5.1  753  300    +9.3     
15 27.04.17 320 (СЗ) 5-10{14}  4000 м  дымка  10/10 300 м 
[St]
+1.1 -0.6 88 -2  1018  4.1  756  304           
18 27.04.17 320 (СЗ) 5{11}  20000 м    10/10 360 м 
[St]
-0.1 -2.5 84 -3  1020.5  2.4  758  306           
00 28.04.17 350 (С) 20000 м    3/3 600 м 
[Sc]
-3.2 -6.3 79 -4  1024.2  1.7  761  311  -3.7      мокрый или
старый снег
50-90% 
03 28.04.17 070 (В) 20000 м    3/0 верхняя 
[Ci sp]
+0.3 -5.6 65 +1  1024.3  0.2  761  307           
06 28.04.17 170 (Ю) 20000 м    3/0 верхняя 
[Ci sp]
+5.8 -8.3 35 +5  1022.8  -1.2  760  301           
09 28.04.17 170 (Ю) 20000 м    3/0 верхняя 
[Ci sp]
+9.5 -6.5 32 +9  1019.7  -3  758  296           
12 28.04.17 170 (Ю) 5{10}  20000 м    3/0 верхняя 
[Ci sp]
+8.7 -2.2 46 +7  1016.6  -3.1  755  295    +9.5       
15 28.04.17 180 (Ю) 20000 м    10/0 средняя, верхняя 
[Ac lent|Ci sp]
+4.7 -1 66 +4  1015  -1.7  754  299           
18 28.04.17 180 (Ю) 20000 м    10/0 средняя, верхняя 
[Ac trans|Ci sp]
+4.2 -1.3 67 +3  1011.9  -3.1  752  299           
00 29.04.17 220 (ЮЗ) 3{11}  4000 м  слаб. дождь  10/4 300 м средняя 
[Frnb|As op]
+5.6 +3.5 86 +5  1006.5  -1.6  748  295  +2.1    мокрый или
старый снег
10-40% 
03 29.04.17 270 (З) 4000 м  в посл. час ливневой снег{дождь}  10/10 300 м кучево-дожд. 
[Cb cap]
+5.1 +3.7 91 +5  1007.1  0.6  748  295           
06 29.04.17 290 (З) 3{11}  20000 м  {ливн. осадки, дождь}  10/10 420 м кучево-дожд. 
[Cb cap]
+4.5 +0.9 77 +3  1008.9  1.8  750  297           
09 29.04.17 300 (СЗ) 4{11}  20000 м    10/9 400 м верхняя 
[Sc|Ci fib]
+5.8 -1.2 61 +4  1010.6  1.7  751  296           
12 29.04.17 230 (ЮЗ) 3{11}  20000 м  {ливн. осадки}  9/8 420 м кучево-дожд., средняя, верхняя 
[Cb cap|Ac trans|Ci sp]
+5.8 +0.7 70 +5  1011  0.4  751  296    +7.6  0.4     
15 29.04.17 270 (З) 3{11}  4000 м  слаб. ливневой дождь  10/10 210 м кучево-дожд. 
[Cb cap]
+2.6 +0.7 87 +1  1012.8  1.7  752  300           
18 29.04.17 260 (З) 1{11}  4000 м  дымка{ливн. осадки}  3/3 600 м 
[Sc]
+0.6 +0 96 +1  1014  1.1  753  303           
00 30.04.17 280 (З) 4000 м  дымка  10/10 210 м 
[Sc]
+0.1 -0.8 94 -1  1015.6  0.8  755  304  -0.5    мокрый или
старый снег
10-40% 
03 30.04.17 290 (З) 10 км  слаб. ливневой снег  10/10 330 м кучево-дожд. 
[Cb cap]
+1.4 -1.4 82 +1  1017.1  1.5  756  303           
06 30.04.17 300 (СЗ) 5{11}  10 км  слаб. ливневой снег  10/10 360 м кучево-дожд. 
[Cb cap]
+0.8 -2.1 81 -2  1018.7  1.5  757  304           
09 30.04.17 300 (СЗ) 5-10{10}  20000 м  {ливн. осадки}  10/4 300 м 
[Cu hum]
+2.5 -1.4 75 1020.1  1.5  758  303           
12 30.04.17 350 (С) 6-11{15}  20000 м  {ливн. осадки}  5/4 600 м верхняя 
[Sc diur, vesp|Ci sp]
+2.6 -9.1 42 1020.7  0.6  751  301  +3    0.4     
15 30.04.17 280 (З) 4{11}  20000 м    10/5 600 м средняя, верхняя 
[Sc diur, vesp|Ac und|Ci sp]
+0.1 -7.1 58 -2  1020.8  758  306           
18 30.04.17 240 (ЮЗ) 20000 м    10/4 600 м средняя, верхняя 
[Sc|Ac und|Ci sp]
-0.4 -9.7 49 -1  1019.7  -1.1  758  307           
Время (UTC), дата Ветер
(°,м/с) 
Видим.   Явления Облачность Т
(°С)
Тd
(°С)
f(%) Тe
(°С)
Pmin
(гПа)
dP
(гПа)
Po
(мм)
O2
(г/м3)
Тmin Tmax R s Состояние
почвы

Для получения пояснительной информации подведите курсор к названию столбца.

ПОГОДА в Напасе - архив

Всё, что Вы хотите узнать о погоде в Напасе - удобно и подробно!

Выберите нужную дату (начиная с 1 января 2015* года) и нажмите кнопку "Найти".
Будут отображены архивные сводки погоды по пункту Напас, начиная с указанной даты.


Отображать данные в формате CSV (для использования в таблицах Excel)


Внимание! Наш архив погоды предназначен исключительно для личного некоммерческого использования в познавательных целях. Если Вам необходимы официальные справки о состоянии погоды (для производственных, юридических, коммерческих и т.п. целей), обращайтесь в органы Росгидромета.

*Примечание: данная дата относится к архиву по метеостанциям СССР (Россия, СНГ, Балтия).
Архив по метеостанциям Зарубежной Европы и Азии (кроме Китая) хранится 10 дней, по другим регионам земного шара (Китай, Африка, Америка, Австралия, Океания) - 1 день.

Напас - район местоположения метеостанции


Название, широта, долгота, высота метеостанции:
Напас 59.9°ш. 81.9°д. 76 м над ур. моря [Российская Федерация]

Дополнительная информация

В oтличие oт бoльшинства пoгoдных сайтoв мы публикуем пoдрoбную метеoинфoрмацию в детальнoм прoфессиoнальнoм фoрмате.

Характеристики температуры и влажнoсти вoздуха измеряются на высoте 2 м в тени вдали oт зданий и деревьев.
Скoрoсть ветра измеряется на высoте 10 м (на урoвне рoста челoвека скoрoсть ветра ниже в 1.5-2 раза). Если метеoстанция нахoдится в гoрoде или в лесу, тo скoрoсть ветра занижена на 2-4 м/с пo сравнению с oткрытым местoм. Скoрoсть ветра над акватoриями крупных рек и oзёр, а также на вершинах хoлмoв на 2-5 м/с выше, чем в oбычных услoвиях.
Атмoсфернoе давление в разных тoчках местнoсти мoжет значительнo oтличаться oт давления на метеoстанции, в зависимoсти oт услoвий рельефа (при пoдъёме на 10 м давление пoнижается примернo на 1 мм рт.ст.).